DELTA 1 DEB

Satellite information

Favourite Embed

Satellite Type and Status

DEBRISIN ORBIT

Key statistics

Satellite DELTA 1 DEB at a glance.

Uptime

19343

Days in orbit

Revolutions

≈ 14.0

Per day

Orbit

SSO

Sun Synchronous Orbit

Inclination

98.1

Latest

Satellite identification and parameters

Extended collection of information and parameters for DELTA 1 DEB.

Object identification

Identified? True

Debris? True

Object name: DELTA 1 DEB

International designator: 1972-058J

Object number (NORAD): 7838

Object ID (CCSDS): 7838

Country: UNITED STATES OF AMERICA (US)

Current information (Y/N): Y

RCS size: MEDIUM

Orbital parameters

Period: 102.732 minutes

Inclination: 98.1072 deg

SMA: 7266.05 km

Apoapsis: 1110.854 km

Periapsis: 664.976 km

RAAN: 317.8536 deg

Eccentricy: 0.0306823

Argument of periapsis: 31.1352 deg

Mean anomaly: 330.7601 deg

Mean motion: 14.01700293 rev/day

Mean motion (dot): 0.0000052 rev/day2

B* drag term: 0.00024387 1/REarth

Two-line elements (TLE)

Creation date: July 8, 2025, 2:27 a.m.

Reference frame: TEME

Reference center: EARTH

Epoch: July 7, 2025, 8:47 p.m. UTC

TLE line 0: 0 DELTA 1 DEB

TLE line 1: 1 07838U 72058J 25188.86646391 .00000520 00000-0 24387-3 0 9999

TLE line 2: 2 07838 98.1072 317.8536 0306823 31.1352 330.7601 14.01700293521774

Live tracking on map

Real-time ground track for satellite DELTA 1 DEB.

In-orbit conjunctions

A list of the most updated potential collisions computed for object DELTA 1 DEB.

Target Orbit TCA Probability of collision Miss distance Type
COSMOS 1904 LEO 2025-06-29 08:39:56 0.0004107542 491.0 (m) PAYLOAD

Associated space launch

Earth observation satellite

DELTA 1 DEB was lifted into orbit during the mission ‘Delta 0900 | Landsat 1’, on board a Delta 0900 space rocket.

The launch took place on July 23, 1972, 6:06 p.m. from Space Launch Complex 2W.

For more information about the launch, click the button.

Launch to space Delta 0900 | Landsat 1
Delta 0900 | Landsat 1

Agency: N/A

Status: Launch Successful

Launch date: July 23, 1972, 6:06 p.m. UTC

Rocket: Delta 0900

Launch pad: Space Launch Complex 2W

Location: Vandenberg SFB, CA, USA

...

Latest news about this satellite

There are no fresh news available about this satellite. Check back as we update our databases every day.


Newsletter sign-up

Weekly statistics, charts and insights to help you stay on top of the space industry.